Starlink 31321

operational
NORAD ID: 58887 Int'l Des: 2024-020 Owner: SPXS Country: US Constellation: starlink
LEOCIRCULAR

Starlink 31321について

説明を読み込み中...

リアルタイム位置

3D地球を読み込み中...

次回通過

高度履歴

Altitude vs Time

uPlot chart will show altitude changes over time

軌道要素

1 58887U 24020M 25307.06194540 .00002226 00000-0 87260-4 0 9999
2 58887 53.1591 190.6082 0001432 83.8909 276.2254 15.30203547 99843
Epoch: Nov 3, 2025 • Age: 39 hours

現在のステータス

高度 493.2 km
速度 7.62 km/s
衛星直下点 -49.60°S, 137°E
打ち上げ日 Jan 29, 2024
運用期間 1.7 years
タイプ internet

技術仕様

分類 Payload
質量 730.00 kg
乾燥質量 700.00 kg
総質量 730.00 kg
長さ 0.30 m
直径 4.10 m
スパン 29.00 m
形状 Box + pan
製造者 SPXS
バスタイプ Starlink V2M
フェーズステータス In Orbit
所有者/国 SPXS/US

大規模コンステレーション

Loading constellations...